This is the latest recevied weather packets stored in our database for station/object OE3BCB-14. If no packets are shown the sender has not sent any weather packets the latest 10 day(s).
| Time | Temp. | Humidity | Pressure | Rain* | Wind** | Luminosity | Snow |
|---|---|---|---|---|---|---|---|
| 1777655520 | 23.33° C | 21% | 1026.6 hPa | - | - | 13 W/m² | - |
| 1777655218 | 23.89° C | 20% | 1026.5 hPa | - | - | 14 W/m² | - |
| 1777654916 | 25° C | 20% | 1026.6 hPa | - | - | 21 W/m² | - |
| 1777654613 | 26.67° C | 19% | 1026.6 hPa | - | - | 17 W/m² | - |
| 1777654311 | 27.78° C | 19% | 1026.7 hPa | - | - | 34 W/m² | - |
| 1777654008 | 28.89° C | 19% | 1026.7 hPa | - | - | 59 W/m² | - |
| 1777653706 | 29.44° C | 20% | 1026.7 hPa | - | - | 67 W/m² | - |
| 1777653404 | 30.56° C | 19% | 1026.8 hPa | - | - | 74 W/m² | - |
| 1777653101 | 31.67° C | 19% | 1026.8 hPa | - | - | 78 W/m² | - |
| 1777652799 | 31.11° C | 19% | 1026.9 hPa | - | - | 85 W/m² | - |
| 1777652496 | 30.56° C | 19% | 1026.9 hPa | - | - | 87 W/m² | - |
| 1777652194 | 30.56° C | 19% | 1027 hPa | - | - | 89 W/m² | - |
| 1777651892 | 30° C | 19% | 1027 hPa | - | - | 91 W/m² | - |
| 1777651589 | 29.44° C | 19% | 1027 hPa | - | - | 94 W/m² | - |
| 1777650984 | 27.22° C | 19% | 1027.1 hPa | - | - | 93 W/m² | - |
| 1777650682 | 28.33° C | 18% | 1027.1 hPa | - | - | 33 W/m² | - |
| 1777650380 | 30.56° C | 18% | 1027.2 hPa | - | - | 50 W/m² | - |
| 1777650077 | 28.89° C | 18% | 1027.2 hPa | - | - | 112 W/m² | - |
| 1777649775 | 30.56° C | 18% | 1027.4 hPa | - | - | 119 W/m² | - |
| 1777649472 | 30° C | 19% | 1027.4 hPa | - | - | 116 W/m² | - |
| 1777649170 | 30.56° C | 18% | 1027.5 hPa | - | - | 113 W/m² | - |
| 1777648867 | 31.11° C | 18% | 1027.5 hPa | - | - | 115 W/m² | - |
| 1777648263 | 33.89° C | 19% | 1027.6 hPa | - | - | 123 W/m² | - |
| 1777647960 | 30.56° C | 19% | 1027.6 hPa | - | - | 123 W/m² | - |
| 1777647658 | 31.67° C | 19% | 1027.6 hPa | - | - | 128 W/m² | - |
* Rain since midnight (hover to see other rain measurements)
** Current wind speed in m/s (hover to see current wind gust speed)